This demonstration page uses our WeatherBlox Daily Observations layout. Learn more.

Left ArrowRight Arrow

31.31129, -92.44514

Hourly Observations for December 14, 2020

Temp ( °F °C ) Dew Point ( °F °C ) Humidity (%) Winds ( mph kmh ) Pressure ( in mb ) Visibility ( mi km ) Precip ( " mm )
12:53 am 00:53 Cloudy with Mist and Fog 44 6.7 40 4.4 85 85 NNW 12 19 30.13 1020 10 16 0.00 0.00
1:24 am 01:24 Cloudy with Mist and Fog 44 6.7 40 4.4 85 85 NNW 16 26 30.12 1020 10 16 0.00 0.00
1:53 am 01:53 Cloudy with Mist and Fog 44 6.7 40 4.4 85 85 NW 8 13 30.16 1022 10 16 0.00 0.00
2:15 am 02:15 Cloudy with Mist and Fog 43 6.1 40 4.4 89 89 NW 14 22 30.17 1022 10 16 0.00 0.00
2:53 am 02:53 Cloudy with Mist and Fog 43 6.1 39 3.9 86 86 NNW 15 24 30.19 1022 10 16 0.00 0.00
3:53 am 03:53 Cloudy with Mist and Fog 42 5.6 39 3.9 89 89 NW 14 22 30.19 1022 10 16 0.00 0.00
4:15 am 04:15 Cloudy with Mist and Fog 41 5 38 3.3 89 89 NW 15 24 30.19 1022 10 16 0.00 0.00
4:53 am 04:53 Cloudy with Mist and Fog 41 5 38 3.3 89 89 NNW 13 20 30.21 1023 9 14 0.00 0.00
5:53 am 05:53 Cloudy with Mist and Fog 41 5 37 2.8 86 86 NNW 13 20 30.24 1024 10 16 0.00 0.00
6:53 am 06:53 Cloudy with Mist and Fog 40 4.4 37 2.8 89 89 N 10 17 30.26 1025 10 16 0.00 0.00
7:53 am 07:53 Cloudy with Mist and Fog 40 4.4 36 2.2 86 86 N 10 17 30.28 1025 10 16 0.00 0.00
8:53 am 08:53 Cloudy with Mist and Fog 40 4.4 37 2.8 89 89 N 13 20 30.29 1026 10 16 0.00 0.00
9:15 am 09:15 Cloudy with Mist and Fog 40 4.4 37 2.8 89 89 N 9 15 30.29 1026 10 16 0.00 0.00
9:27 am 09:27 Cloudy with Mist and Fog 40 4.4 36 2.2 86 86 N 12 19 30.29 1026 10 16 0.00 0.00
9:53 am 09:53 Cloudy with Mist and Fog 40 4.4 36 2.2 86 86 N 10 17 30.31 1027 10 16 0.00 0.00
10:53 am 10:53 Cloudy with Mist and Fog 41 5 36 2.2 82 82 N 12 19 30.31 1026 10 16 0.00 0.00
11:53 am 11:53 Cloudy with Mist and Fog 42 5.6 36 2.2 79 79 N 9 15 30.28 1026 10 16 0.00 0.00
12:21 pm 12:21 Cloudy with Mist and Fog 42 5.6 36 2.2 79 79 N 10 17 30.25 1024 10 16 0.00 0.00
12:53 pm 12:53 Cloudy with Mist and Fog 42 5.6 36 2.2 79 79 N 8 13 30.25 1025 10 16 0.00 0.00
1:01 pm 13:01 Cloudy with Mist and Fog 43 6.1 36 2.2 76 76 N 8 13 30.23 1024 10 16 0.00 0.00
1:53 pm 13:53 Cloudy with Mist and Fog 43 6.1 36 2.2 76 76 NNW 8 13 30.24 1024 10 16 0.00 0.00
2:53 pm 14:53 Cloudy with Mist and Fog 44 6.7 35 1.7 71 71 N 8 13 30.22 1023 10 16 0.00 0.00
3:53 pm 15:53 Partly Cloudy with Mist and Fog 44 6.7 35 1.7 71 71 NE 7 11 30.21 1023 10 16 0.00 0.00
4:00 pm 16:00 Mostly Cloudy with Mist and Fog 45 7.2 36 2.2 71 71 NNE 6 9 30.20 1023 10 16 0.00 0.00
4:14 pm 16:14 Partly Cloudy with Mist and Fog 45 7.2 36 2.2 71 71 NE 7 11 30.20 1023 10 16 0.00 0.00
4:21 pm 16:21 Mostly Cloudy with Mist and Fog 44 6.7 35 1.7 71 71 ENE 6 9 30.20 1023 10 16 0.00 0.00
4:53 pm 16:53 Mostly Cloudy with Mist and Fog 44 6.7 35 1.7 71 71 NE 6 9 30.21 1023 10 16 0.00 0.00
5:53 pm 17:53 Cloudy with Mist and Fog 43 6.1 35 1.7 74 74 NNE 6 9 30.21 1023 10 16 0.00 0.00
6:53 pm 18:53 Mostly Cloudy with Mist and Fog 41 5 35 1.7 79 79 ENE 5 7 30.22 1023 10 16 0.00 0.00
7:06 pm 19:06 Partly Cloudy with Mist and Fog 40 4.4 35 1.7 83 83 ENE 6 9 30.21 1023 10 16 0.00 0.00
7:40 pm 19:40 Mostly Cloudy with Mist and Fog 40 4.4 35 1.7 83 83 E 5 7 30.21 1023 10 16 0.00 0.00
7:53 pm 19:53 Cloudy with Mist and Fog 41 5 34 1.1 76 76 NE 7 11 30.22 1024 10 16 0.00 0.00
8:53 pm 20:53 Cloudy with Mist and Fog 41 5 34 1.1 76 76 ENE 7 11 30.20 1023 10 16 0.00 0.00
9:53 pm 21:53 Cloudy with Mist and Fog 40 4.4 33 0.6 77 77 NE 7 11 30.19 1022 10 16 0.00 0.00
10:53 pm 22:53 Cloudy with Mist and Fog 40 4.4 33 0.6 77 77 E 7 11 30.19 1022 10 16 0.00 0.00
11:53 pm 23:53 Cloudy with Mist and Fog 39 3.9 33 0.6 79 79 E 9 15 30.17 1022 10 16 0.00 0.00

Powered by AerisWeather